Starlink 5491

operational
NORAD ID: 55332 Int'l Des: 2023-013 Owner: SPXS Country: US Constellation: starlink
LEOCIRCULAR

Über Starlink 5491

Beschreibung wird geladen...

Live-Position

3D-Globus wird geladen...

Nächste Überflüge

Höhenverlauf

Altitude vs Time

uPlot chart will show altitude changes over time

Zweizeiliger Elementsatz

1 55332U 23013B 25258.42849048 .00000535 00000-0 54644-4 0 9998
2 55332 43.0031 159.8011 0001271 268.2306 91.8391 15.02537543145493
Epoch: 15. Sept. 2025 • Age: 12 hours

Aktueller Status

Höhe 570.2 km
Geschwindigkeit 7.58 km/s
Subsatellitenpunkt -39.82°S, 117.98°E
Startdatum 26. Jan. 2023
Alter 2.6 years
Typ internet

Technische Details

Klassifizierung Payload
Masse 305.00 kg
Trockenmasse 290.00 kg
Gesamtmasse 305.00 kg
Länge 0.20 m
Durchmesser 2.80 m
Spannweite 9.00 m
Form Box + pan
Hersteller SPXS
Bus-Typ Starlink
Phasenstatus In Orbit
Besitzer/Staat SPXS/US

Große Konstellationen

Loading constellations...